Presure
173 194 168 180 167 96 125 72 154 87 147 132 158 129 105 114 156 107 147 143 139 133 139 140 128 104 122 128 136 131 133 134 127 118 117 119 124 107 116 102 124 112 103 137 167 150 132 141 126
218 187 179 182 178 163 145 72 75 120 148 152 146 153 150 81 135 103 149 99 133 136 134 131 126 124 119 124 122 127 109 131 131 132 118 126 142 165 147 115 116 144 161 150 147 150 126 150 147
213 206 185 173 193 152 160 137 171 68 122 102 135 123 83 159 136 150 131 138 129 128 139 135 136 141 115 118 122 96 137 123 115 127 131 143 106 158 153 135 140 150 154 138 152 131 149 122 109
234 221 195 199 206 172 158 170 155 169 77 93 134 142 128 161 164 83 150 143 139 138 136 136 136 135 139 118 120 95 118 129 115 96 115 118 110 123 140 156 104 103 176 117 158 164 133 137 111
171 223 216 182 197 169 184 170 170 144 162 120 167 69 99 155 143 137 125 131 149 143 131 135 141 140 136 138 120 118 120 120 104 117 125 127 134 131 130 146 134 126 109 166 136 192 112 122 143
193 243 175 196 176 156 205 179 178 164 124 121 155 167 90 106 78 118 137 123 137 133 139 134 133 128 125 129 140 130 137 121 116 120 140 145 146 122 128 160 119 118 126 161 128 174 113 112 122
191 189 225 175 178 180 169 193 173 157 169 158 105 105 161 70 144 77 134 136 139 89 134 132 135 139 138 103 135 132 137 109 125 141 121 111 118 114 148 117 144 114 119 119 132 165 153 101 123
195 200 176 129 204 172 173 194 181 170 161 162 170 127 118 91 142 80 125 157 145 145 142 126 131 138 145 140 111 118 136 139 132 151 117 160 140 149 153 137 149 146 115 143 106 95 109 97 96
187 199 188 156 168 136 156 72 174 180 177 163 159 138 139 81 72 87 71 123 81 130 149 138 120 149 145 141 147 148 150 142 142 146 140 142 143 143 151 162 141 129 96 105 92 105 141 111 131
196 193 187 79 186 94 204 101 139 201 175 166 168 160 139 118 88 125 109 107 146 143 85 147 110 86 90 116 143 142 145 101 132 102 139 128 143 144 140 150 123 153 149 125 108 113 117 150 142
222 172 169 177 168 79 201 99 179 188 160 153 171 165 162 155 147 76 88 108 128 77 90 141 80 122 142 146 150 146 97 138 138 119 100 156 154 148 138 130 134 131 139 136 149 110 88 137 145
228 215 190 179 87 169 91 208 195 185 167 193 181 147 154 159 155 158 156 144 116 71 81 155 83 88 144 141 144 147 139 141 143 142 95 98 139 103 149 156 125 84 133 141 96 142 134 149 146
239 231 218 191 175 126 173 218 183 125 185 226 185 176 162 156 162 157 157 156 148 127 171 152 160 157 124 124 153 126 83 88 120 120 149 134 136 145 147 150 155 121 159 159 139 138 146 115 83
275 244 239 192 189 193 201 86 220 149 153 186 186 187 172 163 152 165 158 162 142 153 132 144 146 160 124 146 156 149 149 133 106 125 133 138 132 131 143 134 103 99 140 149 151 116 92 145 148
280 278 276 254 220 188 209 202 103 219 170 196 174 192 181 166 158 152 161 161 162 157 151 129 131 128 138 135 137 142 86 82 89 95 140 137 137 137 151 148 101 146 152 144 145 146 148 150 146
282 281 277 272 258 209 208 206 181 128 214 175 220 172 194 177 157 152 154 158 166 160 166 156 147 143 136 141 135 83 81 141 156 161 152 143 150 149 146 150 145 143 147 148 151 153 152 149 154
307 310 314 335 273 220 227 213 187 231 197 150 189 187 184 190 177 168 160 167 162 163 162 158 145 150 146 140 152 150 154 153 144 145 143 144 147 151 145 149 148 144 156 156 142 151 151 154 147
307 305 267 323 310 253 218 205 215 235 211 208 166 200 171 190 187 177 168 168 164 155 157 161 156 154 149 150 145 144 147 149 140 143 147 144 142 143 149 141 148 144 144 146 151 152 150 146 150
267 282 297 308 321 396 252 359 232 225 210 178 212 182 204 168 80 183 171 172 172 160 154 156 158 151 149 151 153 155 150 151 148 144 142 141 147 143 141 145 147 146 150 149 149 150 144 147 154
280 282 302 310 314 309 289 337 275 212 221 199 216 208 184 172 185 152 170 173 167 165 157 159 153 151 163 155 152 149 157 159 151 153 155 151 148 136 147 151 151 151 149 149 153 159 143 156 159
281 269 286 299 316 300 347 347 362 218 219 95 211 155 211 176 185 191 175 176 167 157 164 162 161 156 152 155 153 150 151 142 144 143 108 148 151 152 151 149 155 159 156 155 148 152 157 159 158
280 259 287 299 316 297 286 376 347 226 206 215 215 197 172 194 189 181 155 184 172 160 167 164 164 154 158 156 154 156 152 152 155 152 152 148 149 152 156 152 150 149 156 158 161 159 158 157 160
264 265 265 286 297 315 288 319 361 234 222 210 229 213 218 203 193 167 162 188 146 144 161 164 155 162 161 162 165 163 157 155 155 159 161 158 154 152 158 158 160 157 157 158 159 156 158 159 149
262 276 266 282 293 304 291 286 333 336 228 221 231 218 213 210 179 94 94 178 188 189 149 176 168 151 165 169 168 162 160 159 158 158 157 157 158 151 149 155 153 152 153 158 160 152 150 165 156
272 267 276 274 292 293 310 278 260 287 258 229 223 228 140 182 203 173 173 192 181 156 181 191 187 163 161 173 174 167 164 163 161 159 157 154 153 154 158 157 159 161 160 155 150 160 161 167 179
279 277 264 278 292 281 307 319 272 317 306 277 228 228 224 213 201 141 179 182 183 187 188 185 178 169 167 188 186 176 174 173 172 170 168 161 155 153 160 160 158 160 160 159 164 172 179 172 179
288 274 269 267 275 284 290 309 306 274 291 346 283 234 226 219 215 204 180 157 172 179 183 192 184 178 183 197 192 183 185 185 188 183 177 173 168 162 164 167 174 180 184 178 175 177 187 186 183
278 273 262 279 274 279 273 292 302 307 283 289 239 301 276 247 214 207 204 192 184 172 168 161 157 179 189 189 186 183 183 173 177 191 187 185 183 182 181 181 180 178 178 185 187 184 181 181 183
278 284 267 270 270 271 283 285 284 303 317 304 265 246 331 336 328 219 209 210 205 191 187 190 194 205 203 206 197 195 198 197 191 186 187 190 188 184 180 180 183 182 182 182 179 183 187 193 197
291 268 270 277 280 273 269 277 127 283 312 321 323 256 276 272 388 298 295 216 212 208 198 154 191 195 200 218 196 200 203 189 187 198 196 188 182 182 184 183 185 189 191 190 188 196 193 233 233
Wind_Speed
67 76 70 84 76 47 49 17 64 20 58 43 61 47 33 42 60 36 51 45 41 40 39 39 34 28 35 35 33 34 34 33 31 29 28 27 29 23 25 23 29 29 27 34 38 40 29 35 29
85 71 75 69 86 73 68 22 28 42 59 58 53 61 58 16 51 31 52 31 42 42 43 41 40 40 37 36 36 36 31 35 36 36 30 31 36 44 40 28 29 38 42 42 40 40 33 40 40
84 84 74 72 83 62 78 62 79 15 48 38 53 46 22 69 52 54 45 45 45 46 45 44 43 42 37 38 38 20 38 35 33 35 36 38 28 40 40 37 39 42 44 34 45 35 41 33 33
90 88 78 79 76 86 77 88 68 84 26 36 56 55 50 67 66 21 56 52 50 50 46 46 44 44 44 41 40 27 36 39 32 23 34 33 30 35 38 42 30 30 53 34 50 56 35 46 35
62 88 87 69 76 82 95 89 90 66 75 54 75 12 32 63 56 53 44 46 53 52 48 46 47 47 47 47 45 41 39 38 36 36 38 38 38 37 37 39 40 38 36 45 40 40 37 40 45
71 93 60 70 72 85 95 94 91 76 59 60 69 77 32 39 22 42 48 51 49 52 52 48 48 49 47 49 49 47 45 42 40 40 44 43 43 38 39 39 39 39 41 38 42 45 39 37 36
72 72 83 72 83 88 81 97 84 68 83 76 55 53 74 22 60 27 54 55 58 26 54 50 53 55 55 34 52 49 47 39 42 46 42 39 41 39 43 40 39 40 43 43 43 44 42 32 48
76 76 66 63 90 86 85 91 95 89 76 71 78 59 54 38 61 32 51 64 60 60 59 53 53 57 57 53 33 45 49 48 47 50 42 50 44 44 45 45 40 41 43 42 35 31 39 34 36
76 75 72 69 77 64 74 23 78 97 92 78 73 66 69 35 25 36 18 47 25 51 61 58 49 59 58 57 54 50 49 50 48 46 46 45 47 43 44 47 42 46 30 38 32 39 46 41 53
80 78 79 11 90 26 97 54 67 96 86 83 88 79 72 58 41 59 48 43 59 58 26 63 40 24 24 40 54 52 51 29 43 32 47 42 46 44 44 45 40 47 46 45 39 47 45 52 50
85 80 76 87 84 35 88 33 85 88 76 77 91 83 83 81 75 30 43 55 56 27 35 61 26 49 55 53 55 53 30 49 54 39 31 55 53 47 46 51 48 46 48 47 51 41 38 52 57
90 91 90 88 34 77 34 96 91 85 88 98 99 73 75 84 81 78 75 67 59 21 34 70 32 31 56 59 56 55 51 52 54 51 31 34 50 36 51 55 48 33 53 51 39 52 54 59 62
95 94 93 91 82 50 71 96 85 56 92 99 98 96 86 80 87 81 77 77 72 65 72 70 71 69 51 49 60 49 29 31 46 45 54 47 53 52 52 55 60 48 62 63 53 55 59 50 35
87 100 97 89 92 92 91 23 102 70 70 95 97 99 99 89 76 91 80 83 71 73 63 64 63 68 53 59 62 61 61 58 40 51 57 54 50 50 55 51 41 42 54 60 62 53 44 60 65
83 86 89 95 95 89 96 91 54 107 80 96 93 100 101 96 85 78 85 82 82 76 69 66 67 64 63 60 61 62 36 33 39 43 58 56 54 56 66 61 49 59 67 60 62 63 65 68 62
80 81 83 89 88 84 97 91 94 63 102 89 105 93 104 104 82 75 72 79 86 77 78 72 70 69 67 65 61 24 28 59 69 73 67 62 67 67 62 65 58 60 64 65 70 74 71 69 76
69 65 63 60 91 90 97 98 98 106 102 76 97 101 101 104 105 94 85 90 85 84 78 75 71 71 70 68 70 69 71 70 63 62 62 64 66 69 61 67 67 64 78 77 65 74 74 76 67
58 62 76 57 68 95 86 104 104 107 109 108 86 105 95 103 105 103 94 91 85 73 76 79 79 76 72 73 68 68 69 68 64 64 65 66 65 64 68 63 69 66 67 70 76 77 74 66 76
71 70 64 59 58 42 96 77 105 106 110 91 103 97 107 87 31 104 95 95 97 85 79 84 84 72 70 74 76 78 74 73 72 67 66 66 70 66 67 68 71 71 77 76 77 76 68 73 88
73 68 55 56 58 69 82 78 102 111 112 108 110 101 96 90 98 75 90 98 92 93 84 85 79 73 86 77 75 72 79 82 75 77 82 77 71 64 73 77 76 77 77 77 83 90 72 93 95
70 70 63 59 53 69 57 70 75 108 110 25 106 67 98 92 98 102 95 102 98 82 96 90 86 79 76 80 76 72 74 67 69 67 48 75 80 81 78 76 84 88 88 88 78 88 97 99 98
69 71 64 55 48 66 76 46 75 111 101 110 111 96 80 92 100 98 86 107 101 90 98 93 94 81 88 82 78 84 82 85 86 82 83 76 78 82 87 81 78 78 91 97 100 99 99 98 104
69 70 68 59 53 48 72 62 56 111 110 100 112 99 99 93 94 88 87 106 73 72 94 95 77 92 90 93 97 95 88 85 85 91 93 91 85 82 91 91 96 91 94 96 99 97 101 101 87
68 69 69 62 55 51 67 75 55 70 111 111 115 106 101 97 91 36 36 101 105 108 82 109 98 71 90 98 99 95 94 91 92 93 90 89 90 81 81 89 89 87 91 99 102 90 90 116 100
70 69 69 66 57 51 50 75 91 84 109 111 109 107 51 91 93 93 94 102 102 80 102 108 110 90 86 104 105 100 99 99 97 95 92 86 85 88 95 96 100 104 104 98 93 111 111 118 121
67 66 62 61 51 57 46 44 79 69 77 108 109 108 105 101 95 65 94 97 99 104 105 104 101 94 93 109 110 105 102 104 105 104 105 100 91 89 99 102 101 105 105 106 114 116 115 115 117
65 63 60 59 57 53 53 45 57 83 81 61 105 108 106 102 103 100 97 92 96 99 101 106 104 100 103 110 109 106 107 107 108 110 110 108 106 102 104 108 112 113 113 111 112 111 116 115 114
60 62 59 57 57 54 56 50 49 56 74 77 47 91 100 103 103 103 103 98 96 94 93 88 81 94 104 103 101 101 101 95 100 110 110 111 110 110 110 110 110 108 110 111 112 112 110 111 111
55 57 55 57 54 52 49 49 53 51 49 58 75 70 73 98 103 104 101 102 102 98 96 99 100 105 107 111 106 105 108 109 106 104 106 108 109 109 108 109 112 110 109 110 108 114 115 125 127
54 55 54 53 52 52 51 47 22 50 42 41 43 80 79 84 61 94 99 104 103 105 103 83 98 100 102 112 99 104 109 98 94 109 107 103 101 103 107 105 110 112 115 118 115 126 122 114 114
Wind_Direction
230 223 226 221 228 238 226 225 228 229 224 229 223 226 242 241 224 239 228 226 223 224 228 229 235 240 235 231 236 240 243 246 247 260 261 258 263 261 271 270 280 274 281 286 276 282 280 292 294
223 222 221 223 220 228 228 227 235 223 225 223 225 226 228 230 230 240 229 245 224 226 227 225 225 229 237 236 237 239 244 247 251 255 259 264 267 269 268 279 282 279 272 279 281 282 292 287 289
223 221 221 223 215 231 230 230 230 226 228 231 219 233 234 229 232 227 234 227 227 229 228 229 229 235 241 242 240 260 245 245 249 254 260 268 260 270 273 272 279 277 274 286 282 281 286 285 290
222 221 220 219 216 220 232 228 226 229 225 236 222 221 230 230 230 227 229 229 228 230 230 232 232 233 237 244 245 266 248 245 254 272 253 263 270 268 274 273 276 280 273 279 277 275 283 281 291
231 221 219 215 216 223 221 227 227 227 230 226 223 220 227 229 231 229 231 232 230 232 234 235 239 240 240 240 245 249 250 250 256 257 256 260 266 270 272 276 273 276 275 277 278 277 285 284 285
226 222 226 216 216 227 220 223 223 228 224 228 224 224 226 225 229 236 228 238 233 234 235 235 237 240 240 242 242 242 244 252 253 255 260 264 266 264 268 269 271 273 277 275 279 277 287 289 293
227 225 217 218 219 222 230 222 224 230 229 230 230 231 228 238 228 237 231 226 233 238 235 236 238 240 241 259 243 244 247 258 259 260 258 262 263 265 274 268 269 273 276 278 279 278 283 289 286
226 223 223 239 218 225 226 223 219 225 230 230 230 227 229 230 229 229 235 233 233 236 238 236 237 241 242 243 254 250 246 249 252 263 263 268 262 273 278 268 278 278 276 279 285 286 289 286 288
230 224 222 226 226 240 222 251 224 221 221 227 228 223 231 227 240 238 241 236 249 239 240 240 249 246 244 245 247 249 254 251 253 260 256 267 271 267 277 275 272 271 280 282 283 290 284 285 283
226 224 220 195 221 198 219 226 229 219 225 229 226 225 229 230 235 234 234 239 234 236 248 244 244 245 244 246 246 248 252 264 256 273 260 265 267 270 266 280 282 284 280 273 284 283 286 295 292
219 228 226 224 227 212 221 227 226 219 228 229 227 228 227 231 233 234 240 239 231 246 249 245 250 247 248 249 249 248 258 255 253 263 263 270 272 273 266 268 271 273 278 282 289 286 290 286 296
223 219 222 225 211 227 233 221 225 218 223 220 221 229 228 230 234 236 234 232 237 238 244 243 253 251 249 247 248 251 257 256 256 261 261 273 262 274 277 276 279 282 273 281 282 286 281 296 297
221 224 219 222 225 229 223 219 225 225 219 219 221 224 230 231 232 234 234 235 232 236 234 240 243 246 246 250 250 252 255 258 258 261 265 263 266 274 277 279 281 282 283 283 283 283 292 290 303
220 223 223 223 224 225 224 226 222 226 226 221 221 221 226 231 232 234 234 236 232 234 240 239 242 246 246 248 251 252 254 253 264 260 260 263 269 272 274 274 277 278 279 287 289 292 297 294 298
221 221 219 220 216 227 223 219 234 224 224 219 225 222 223 229 232 234 237 237 237 238 238 243 245 248 244 245 246 252 259 264 268 272 262 262 265 267 277 278 276 283 284 285 291 293 295 297 298
222 221 218 219 217 219 224 217 227 226 223 220 217 227 222 224 232 234 235 238 239 240 238 239 242 245 246 248 253 254 263 259 261 260 267 269 272 273 277 280 282 283 289 291 292 291 294 298 299
223 224 219 221 216 220 219 219 225 220 225 226 218 223 225 223 227 233 236 237 239 241 241 241 242 245 246 247 250 255 257 258 259 263 265 269 272 275 278 282 284 286 286 286 288 293 297 297 294
223 224 217 222 219 217 217 221 218 218 224 225 223 220 228 224 225 231 236 238 240 244 245 242 245 246 248 250 251 254 256 260 261 264 268 270 272 276 279 279 283 285 287 290 292 295 296 297 298
218 220 220 220 219 225 214 212 217 219 223 228 222 220 222 231 229 227 234 237 236 240 242 244 245 246 247 250 254 255 258 260 263 265 267 269 274 276 278 282 285 287 288 291 292 294 291 295 298
219 219 221 221 217 215 214 213 215 218 222 227 226 222 222 228 227 237 233 235 238 240 244 244 247 249 249 254 254 256 256 256 263 265 267 271 275 277 280 282 284 287 289 291 292 293 292 297 298
220 221 219 221 220 212 219 214 215 217 223 239 229 231 223 227 228 227 230 230 235 238 240 243 246 249 253 254 258 259 260 262 266 268 272 274 275 277 280 284 282 284 289 290 292 294 294 295 296
218 220 220 222 225 215 215 224 214 219 222 223 227 229 229 221 226 229 235 230 234 240 242 243 246 251 253 257 258 260 262 264 267 268 271 274 276 279 281 283 285 286 287 287 288 291 293 295 297
218 221 221 219 223 224 214 218 224 220 224 225 226 228 228 225 223 229 232 230 237 241 242 245 247 248 252 255 255 257 261 265 268 268 268 271 276 279 280 283 282 287 288 290 291 293 294 295 293
218 221 223 222 224 222 218 214 223 223 224 225 226 227 228 227 221 246 232 235 233 233 238 240 246 250 251 251 253 257 260 263 266 268 271 274 276 278 280 283 286 287 289 288 289 291 292 294 295
218 221 224 225 225 224 228 216 221 220 221 227 229 228 241 229 229 225 232 233 238 243 239 239 241 249 253 252 251 254 257 260 263 267 271 276 279 280 281 283 283 284 286 290 291 291 292 292 292
218 222 226 231 228 225 234 228 222 223 225 223 230 231 229 231 231 229 229 232 236 239 240 242 244 247 250 247 249 254 256 258 260 262 264 269 274 277 278 279 282 282 283 284 285 286 288 288 290
216 223 228 231 232 230 231 236 227 226 225 231 228 232 233 231 230 232 232 238 234 237 239 241 244 247 248 249 250 254 256 258 258 260 264 266 270 274 275 276 277 278 279 282 283 285 287 288 289
219 222 226 231 233 233 231 239 237 236 230 228 239 233 236 235 234 233 234 235 237 240 243 247 250 248 248 250 252 254 257 261 263 261 264 267 269 272 275 277 278 280 281 283 285 285 286 288 291
224 226 231 234 236 239 242 243 240 242 243 236 233 235 235 238 235 235 237 237 238 240 242 244 246 247 249 250 252 255 256 258 261 264 266 267 270 273 274 277 278 280 281 283 284 286 289 291 292
224 225 229 236 239 241 241 247 231 242 256 252 243 235 235 238 225 237 238 238 239 240 241 246 245 247 249 250 254 256 257 260 263 263 266 267 268 271 273 275 277 281 283 284 286 287 289 292 293